Home   Weather   Hyde Park   Past weeks
Flag for USA

Past Weather in Hyde Park, New York, USA — Yesterday and Last 2 Weeks

Now
35 °F

Overcast.


Feels Like: 32 °F
Forecast: 39 / 21 °F
Wind: 3 mph from West

Location: Dutchess County Airport

Current Time: Dec 5, 2019 at 10:21:21 pm

Latest Report: Dec 5, 2019 at 8:53 pm


Visibility: 10 mi

Pressure: 29.98 "Hg

Humidity: 56%

Dew Point: 21 °F

Location of Hyde ParkLocation

Past Weather in Hyde Park — Graph

°F

Hyde Park Temperature Yesterday

Maximum temperature yesterday: 37 °F (at 1:53 pm)
Minimum temperature yesterday: 24 °F (at 12:53 am)
Average temperature yesterday: 33 °F

High & Low Weather Summary for the Past Weeks

 TemperatureHumidityPressure
High62 °F (Nov 26, 2:53 pm)96% (Nov 26, 3:53 am)30.25 "Hg (Nov 26, 3:53 am)
Low19 °F (Dec 1, 5:53 am)34% (Nov 30, 3:53 pm)29.28 "Hg (Nov 24, 1:53 pm)
Average35 °F74%29.79 "Hg
* Reported Nov 20 8:53 pm — Dec 5 8:53 pm, Hyde Park. Weather by CustomWeather, © 2019

Note: Actual official high and low records may vary slightly from our data, if they occured in-between our weather recording intervals... More about our weather records

Hyde Park Weather History for the Previous 24 Hours

Scroll right to see more
 ConditionsComfort  
Time TempWeatherWind HumidityBarometerVisibility
8:53 pm
Thu, Dec 5
35 °FOvercast.3 mph56%29.98 "Hg10 mi
7:53 pm35 °FOvercast.6 mph56%29.94 "Hg10 mi
6:53 pm35 °FOvercast.12 mph56%29.92 "Hg10 mi
5:53 pm36 °FOvercast.10 mph52%29.89 "Hg10 mi
4:53 pm36 °FOvercast.13 mph57%29.87 "Hg10 mi
3:53 pm38 °FMore clouds than sun.12 mph53%29.81 "Hg10 mi
2:53 pm38 °FMore clouds than sun.17 mph53%29.78 "Hg10 mi
1:53 pm39 °FOvercast.15 mph46%29.75 "Hg10 mi
12:53 pm39 °FPartly sunny.13 mph45%29.74 "Hg10 mi
11:53 am39 °FOvercast.12 mph50%29.73 "Hg10 mi
10:53 am39 °FOvercast.12 mph50%29.71 "Hg10 mi
9:53 am39 °FPartly sunny.15 mph62%29.69 "Hg10 mi
8:53 am38 °FOvercast.10 mph68%29.67 "Hg10 mi
7:53 am37 °FOvercast.7 mph73%29.64 "Hg10 mi
6:53 am30 °FPassing clouds.No wind92%29.62 "Hg8 mi
5:53 am34 °FPassing clouds.No wind82%29.59 "Hg10 mi
4:53 am33 °FOvercast.No wind88%29.56 "Hg9 mi
3:53 am34 °FMostly cloudy.5 mph85%29.54 "Hg8 mi
2:53 am34 °FMostly cloudy.3 mph85%29.52 "Hg7 mi
1:53 am34 °FPassing clouds.7 mph85%29.49 "Hg7 mi
12:53 am34 °FFog.5 mph85%29.49 "Hg6 mi
11:53 pm
Wed, Dec 4
35 °FOvercast.5 mph82%29.49 "Hg6 mi
10:53 pm35 °FMostly cloudy.5 mph82%29.49 "Hg7 mi
Weather by CustomWeather, © 2019

See weather overview

Advertising